This is the latest recevied weather packets stored in our database for station/object W1REE. If no packets are shown the sender has not sent any weather packets the latest 10 day(s).
| Time | Temp. | Humidity | Pressure | Rain* | Wind** | Luminosity | Snow |
|---|---|---|---|---|---|---|---|
| 1777912613 | 20° C | 21% | 1012.7 hPa | 0 mm | - | 545 W/m² | - |
| 1777912309 | 20° C | 21% | 1012.4 hPa | 0 mm | - | 526 W/m² | - |
| 1777912005 | 20° C | 21% | 1012.4 hPa | 0 mm | - | 646 W/m² | - |
| 1777911702 | 20° C | 21% | 1012.5 hPa | 0 mm | - | 653 W/m² | - |
| 1777911398 | 20° C | 20% | 1012.8 hPa | 0 mm | - | 593 W/m² | - |
| 1777911096 | 20.56° C | 20% | 1012.5 hPa | 0 mm | - | 393 W/m² | - |
| 1777910793 | 20.56° C | 19% | 1012.8 hPa | 0 mm | - | 543 W/m² | - |
| 1777910489 | 20° C | 21% | 1012.9 hPa | 0 mm | - | 723 W/m² | - |
| 1777910186 | 19.44° C | 20% | 1012.8 hPa | 0 mm | - | 637 W/m² | - |
| 1777909883 | 18.89° C | 21% | 1012.9 hPa | 0 mm | - | 581 W/m² | - |
| 1777909580 | 18.89° C | 21% | 1013 hPa | 0 mm | - | 463 W/m² | - |
| 1777909278 | 18.89° C | 21% | 1012.8 hPa | 0 mm | - | 457 W/m² | - |
| 1777908976 | 18.89° C | 21% | 1012.9 hPa | 0 mm | - | 359 W/m² | - |
| 1777908674 | 18.89° C | 23% | 1013.1 hPa | 0 mm | - | 368 W/m² | - |
| 1777908370 | 18.33° C | 25% | 1013 hPa | 0 mm | - | 295 W/m² | - |
| 1777908067 | 18.33° C | 25% | 1013 hPa | 0 mm | - | 281 W/m² | - |
| 1777907762 | 17.78° C | 27% | 1013 hPa | 0 mm | - | 297 W/m² | - |
| 1777907457 | 17.78° C | 28% | 1013 hPa | 0 mm | - | 475 W/m² | - |
| 1777907154 | 17.22° C | 29% | 1012.9 hPa | 0 mm | - | 313 W/m² | - |
| 1777906852 | 16.67° C | 29% | 1013 hPa | 0 mm | - | 363 W/m² | - |
| 1777906549 | 16.11° C | 28% | 1013.1 hPa | 0 mm | - | 277 W/m² | - |
| 1777906244 | 15.56° C | 30% | 1013.1 hPa | 0 mm | - | 241 W/m² | - |
| 1777905941 | 15.56° C | 38% | 1013.4 hPa | 0 mm | - | 197 W/m² | - |
| 1777905638 | 15° C | 31% | 1013.1 hPa | 0 mm | - | 178 W/m² | - |
| 1777905335 | 15° C | 33% | 1013.1 hPa | 0 mm | - | 178 W/m² | - |
* Rain latest hour (hover to see other rain measurements)
** Current wind speed in m/s (hover to see current wind gust speed)